This is the latest recevied weather packets stored in our database for station/object EA4HRG-10. If no packets are shown the sender has not sent any weather packets the latest 1 day(s).
| Time | Temp. | Humidity | Pressure | Rain* | Wind** | Luminosity | Snow |
|---|---|---|---|---|---|---|---|
| 1788582340 | 15.56° C | 55% | 1023.5 hPa | - | - | - | - |
| 1788581440 | 15.56° C | 54% | 1023.4 hPa | - | - | - | - |
| 1788580540 | 16.11° C | 53% | 1023.6 hPa | - | - | - | - |
| 1788579640 | 16.67° C | 52% | 1023.4 hPa | - | - | - | - |
| 1788578740 | 16.67° C | 51% | 1023.2 hPa | - | - | - | - |
| 1788577840 | 17.22° C | 49% | 1023 hPa | - | - | - | - |
| 1788576940 | 17.22° C | 49% | 1023 hPa | - | - | - | - |
| 1788576040 | 17.22° C | 48% | 1023 hPa | - | - | - | - |
| 1788575140 | 17.78° C | 48% | 1022.8 hPa | - | - | - | - |
| 1788574240 | 17.78° C | 46% | 1022.5 hPa | - | - | - | - |
| 1788573340 | 18.33° C | 46% | 1022.3 hPa | - | - | - | - |
| 1788572440 | 18.89° C | 44% | 1022.2 hPa | - | - | - | - |
| 1788571540 | 19.44° C | 43% | 1021.9 hPa | - | - | - | - |
| 1788570640 | 19.44° C | 42% | 1021.8 hPa | - | - | - | - |
| 1788569740 | 20° C | 41% | 1021.7 hPa | - | - | - | - |
| 1788568840 | 20° C | 41% | 1021.7 hPa | - | - | - | - |
| 1788567940 | 20.56° C | 40% | 1021.6 hPa | - | - | - | - |
| 1788567040 | 20.56° C | 38% | 1021.7 hPa | - | - | - | - |
| 1788566140 | 20.56° C | 36% | 1021.5 hPa | - | - | - | - |
| 1788565240 | 21.11° C | 34% | 1021.5 hPa | - | - | - | - |
| 1788564340 | 21.11° C | 36% | 1021.5 hPa | - | - | - | - |
* Rain since midnight (hover to see other rain measurements)
** Current wind speed in m/s (hover to see current wind gust speed)